Weather History for New Castle, PA

Change the Weather History Date:

Monday, February 18, 2013

  Actual Average Record
Temperature  
Mean Temperature 20 °F -  
Max Temperature 38 °F 40 °F 65 °F (1927)
Min Temperature 4 °F 19 °F -9 °F (1979)
Degree Days  
Heating Degree Days 44    
Moisture  
Dew Point 12 °F    
Average Humidity 63    
Maximum Humidity 88    
Minimum Humidity 43    
Precipitation  
Precipitation 0.00 in - - ()
Sea Level Pressure  
Sea Level Pressure 30.21 in    
Wind  
Wind Speed 3 mph (SSE)    
Max Wind Speed 9 mph    
Max Gust Speed -    
Visibility 10 miles    
Events      
Averages and records for this station are not official NWS values.
T = Trace of Precipitation, MM = Missing Value Source: NWS Daily Summary

Daily Weather History Graph

Daily Weather History Graph

Search for Another Location

Airport:

Trip Planner

Search our weather history database for the weather conditions in past years. The results will help you decide how hot, cold, wet, or windy it might be!

Date:

Astronomy

Feb. 18, 2013 Rise Set
Actual Time 7:11 AM EST 6:00 PM EST
Civil Twilight 6:43 AM EST 6:28 PM EST
Nautical Twilight 6:11 AM EST 7:00 PM EST
Astronomical Twilight 5:39 AM EST 7:32 PM EST
Moon 11:43 AM EST (2/18) 1:51 AM EST (2/18)
Length of Visible Light 11h 44m
Length of Day
10h 48m
First Quarter, 58% of the Moon is Illuminated
Feb 18
First Quarter
Feb 25
Full
Mar 4
Last Quarter
Mar 11
New
Mar 19
First Quarter

Hourly Weather History & Observations

Time (EST) Temp. Windchill Dew Point Humidity Pressure Visibility Wind Dir Wind Speed Gust Speed Precip Events Conditions
12:56 AM 7.2 °F - 4.1 °F 87% 30.37 in 10.0 mi Calm Calm - N/A   Clear
1:56 AM 6.1 °F - 3.0 °F 87% 30.35 in 10.0 mi Calm Calm - N/A   Clear
2:56 AM 7.2 °F - 3.0 °F 83% 30.36 in 10.0 mi Calm Calm - N/A   Clear
3:56 AM 5.0 °F - 2.1 °F 88% 30.36 in 10.0 mi Calm Calm - N/A   Clear
4:56 AM 5.0 °F - 2.1 °F 88% 30.36 in 10.0 mi Calm Calm - N/A   Clear
5:56 AM 4.1 °F - 1.0 °F 87% 30.38 in 10.0 mi Calm Calm - N/A   Clear
6:56 AM 4.1 °F - 1.0 °F 87% 30.38 in 10.0 mi Calm Calm - N/A   Clear
7:56 AM 7.2 °F - 4.1 °F 87% 30.38 in 6.0 mi Calm Calm - N/A   Clear
9:56 AM 20.1 °F 11.3 °F 9.1 °F 62% 30.34 in 10.0 mi SSE 6.9 mph - N/A   Clear
10:56 AM 25.2 °F 17.3 °F 8.1 °F 48% 30.31 in 10.0 mi SSE 6.9 mph - N/A   Clear
11:56 AM 28.0 °F 19.3 °F 10.0 °F 47% 30.27 in 10.0 mi SSE 9.2 mph - N/A   Clear
12:56 PM 31.1 °F 23.1 °F 12.0 °F 45% 30.23 in 10.0 mi SSE 9.2 mph - N/A   Clear
1:56 PM 34.9 °F 29.9 °F 15.1 °F 44% 30.18 in 10.0 mi Variable 5.8 mph - N/A   Clear
2:56 PM 36.0 °F 29.6 °F 15.1 °F 43% 30.15 in 10.0 mi SSE 8.1 mph - N/A   Clear
3:56 PM 37.9 °F 31.5 °F 17.1 °F 43% 30.13 in 10.0 mi SSE 9.2 mph - N/A   Clear
4:56 PM 36.9 °F 33.1 °F 18.1 °F 47% 30.12 in 10.0 mi Variable 4.6 mph - N/A   Clear
5:56 PM 36.9 °F 33.1 °F 18.1 °F 47% 30.09 in 10.0 mi SE 4.6 mph - N/A   Clear
6:56 PM 36.0 °F 33.3 °F 19.0 °F 50% 30.08 in 10.0 mi Variable 3.5 mph - N/A   Clear
7:56 PM 36.0 °F 31.1 °F 20.1 °F 53% 30.04 in 10.0 mi SE 5.8 mph - N/A   Clear
8:56 PM 36.9 °F 33.1 °F 21.0 °F 53% 30.01 in 10.0 mi Variable 4.6 mph - N/A   Clear
9:56 PM 37.9 °F 34.4 °F 23.0 °F 55% 29.98 in 10.0 mi SSE 4.6 mph - N/A   Clear
10:56 PM 37.9 °F 31.5 °F 24.1 °F 57% 29.94 in 10.0 mi SSE 9.2 mph - N/A   Clear
11:56 PM 38.8 °F 34.6 °F 26.1 °F 60% 29.91 in 10.0 mi Variable 5.8 mph - N/A   Clear